[[{"header":{"parameterUnit":"m.s-1","parameterCategory":1,"la1":30.2991,"la2":30.254,"lo1":-89.0895,"lo2":-89.0444,"dy":0.0017,"dx":0.0017,"nx":28,"ny":28,"refTime":"2025-07-20T21:00:00:Z","depth":0,"parameterNumber":2,"parameterNumberName":"U-component_of_WINDS"},"data":[0,0,0,0,0,0,0,0,0,0,0,0,0,0,0,0,0,0,0,0,0,0,0,0,0,0,0,0,0,0,0,0,0,0,0,0,0,0,0,0,0,0,0,0,0,0,0,0,0,0,0,0,0,0,0,0,0,0,2.3327,2.3329,0,2.348,2.3482,2.3483,2.3499,2.3498,2.3496,2.3495,2.3657,2.3663,2.3668,0,0,0,0,0,0,0,0,0,0,0,0,0,2.3054,2.3059,2.3327,2.3329,2.3331,2.348,2.3482,2.3484,2.3499,2.3498,2.3496,2.3494,2.3655,2.3662,2.3669,0,0,0,0,0,0,0,0,0,0,0,0,0,2.3187,2.3061,2.3327,2.3356,2.3361,2.3479,2.3482,2.3484,2.35,2.3498,2.3495,2.3493,2.3653,2.3661,2.367,2.3771,0,0,2.3696,2.37,0,0,0,0,0,0,0,0,2.3179,2.3197,2.335,2.3355,2.3359,2.3468,2.3445,2.3581,2.35,2.3447,2.3494,2.3492,2.3596,2.361,2.3644,2.3779,2.3786,2.3697,2.3703,2.3706,2.3709,0,0,0,0,0,0,0,2.317,2.319,2.3388,2.3352,2.3358,2.3364,2.338,2.3471,2.3534,2.3452,2.3453,2.3471,2.3599,2.3635,2.3648,2.3788,2.3697,2.3705,2.371,2.3714,2.4015,2.4017,0,0,0,0,0,0,2.3154,2.3182,2.3383,2.3392,2.3261,2.3371,2.3389,2.3436,2.3532,2.3545,2.3473,2.3471,2.3622,2.3637,2.3653,2.3778,2.3706,2.3714,2.3719,2.4012,2.4015,2.4018,0,0,0,0,0,0,2.3149,2.3172,2.3377,2.3288,2.3314,2.3378,2.343,2.344,2.3477,2.3548,2.356,2.3498,2.362,2.3641,2.3741,2.3784,2.3718,2.3726,2.4009,2.4013,2.4017,2.4029,0,0,0,0,0,0,2.3141,2.317,2.3208,2.3289,2.3319,2.346,2.3433,2.3445,2.3491,2.349,2.3575,2.3587,2.362,2.3728,2.375,2.3795,2.3733,2.4005,2.4011,2.4016,2.4025,2.4033,2.404,0,0,0,0,0,2.3131,2.3206,2.3209,2.3234,2.3367,2.3463,2.348,2.3515,2.3494,2.3534,2.358,2.3585,2.3776,2.3739,2.3763,2.3811,2.4003,2.4009,2.4015,2.4022,2.4031,2.404,0,0,0,0,0,0,2.3131,2.3217,2.3222,2.3325,2.3386,2.3465,2.3516,2.3524,2.3594,2.359,2.3632,2.3651,2.375,2.3791,2.3748,2.3915,2.3888,2.3899,2.3884,2.3894,2.3901,2.3889,2.374,0,0,0,0,0,2.3142,2.3211,2.3284,2.3368,2.3398,2.3452,2.3495,2.3516,2.3582,2.3608,2.3662,2.3727,2.3802,2.385,2.3923,2.4031,2.405,2.4077,2.4084,2.409,2.4099,2.4159,2.4172,2.4039,2.4039,2.4039,0,0,2.3168,2.3223,2.3265,2.3369,2.3419,2.3491,2.3473,2.355,2.3604,2.3621,2.3717,2.3759,2.3835,2.3939,2.3988,2.3977,2.414,2.4098,2.4102,2.4108,2.4167,2.418,2.4191,2.4043,2.4042,2.4042,0,0,2.325,2.3299,2.3374,2.3425,2.3499,2.3535,2.3553,2.3631,2.3658,2.3756,2.377,2.3836,2.3964,2.4017,2.4061,2.4164,2.4172,2.4187,2.4226,2.4284,2.4295,2.4304,2.4341,2.4353,2.4196,2.4196,2.4196,0,2.3273,2.3379,2.3413,2.3489,2.3535,2.3551,2.3629,2.3676,2.3772,2.3804,2.379,2.395,2.4003,2.412,2.4145,2.418,2.4203,2.4177,2.429,2.43,2.4309,2.4345,2.4358,2.4198,2.4198,2.4197,2.4197,0,2.3403,2.3477,2.353,2.3619,2.3672,2.3748,2.3795,2.3844,2.3861,2.3898,2.3999,2.4062,2.4147,2.4177,2.4195,2.4297,2.4287,2.4281,2.4254,2.4323,2.4357,2.4371,2.42,2.4199,2.4199,2.4198,0,0,2.3489,2.3597,2.3615,2.3656,2.374,2.3799,2.3877,2.3959,2.4001,2.4067,2.4134,2.4242,2.4236,2.4286,2.431,2.4361,2.4439,2.4349,2.4351,2.4363,2.4555,2.4559,2.4574,2.4444,2.4447,2.4449,2.4549,0,2.3581,2.3718,2.3751,2.3869,2.3938,2.3955,2.4023,2.4083,2.412,2.4186,2.4228,2.4303,2.429,2.432,2.4372,2.4418,2.4478,2.4412,2.4508,2.4511,2.4488,2.4592,2.4597,2.4687,2.4562,2.4565,2.4566,0,2.3706,2.3773,2.3897,2.3972,2.4003,2.4063,2.4141,2.4203,2.4272,2.4296,2.4351,2.437,2.4454,2.4423,2.4539,2.4493,2.4535,2.4564,2.4568,2.4578,2.4542,2.4605,2.4717,2.473,2.4588,2.4586,2.4585,0,2.3756,2.3877,2.3967,2.4002,2.4092,2.4134,2.4174,2.424,2.4287,2.4357,2.4388,2.4466,2.4509,2.457,2.4611,2.4585,2.4724,2.4697,2.4747,2.4745,2.4775,2.4772,2.4895,2.4802,2.4802,2.4802,2.4802,0,2.3855,2.393,2.399,2.4046,2.4131,2.4169,2.4253,2.4294,2.4353,2.4417,2.4438,2.4499,2.4548,2.4616,2.4649,2.474,2.476,2.4782,2.479,2.478,2.4777,2.4807,2.4802,2.4806,2.4805,2.4804,2.4803,0,2.3924,2.3968,2.4067,2.4144,2.4165,2.4224,2.4291,2.4346,2.4384,2.4465,2.4487,2.4547,2.4628,2.4674,2.4777,2.4799,2.49,2.4905,2.4876,2.4879,2.4926,2.492,2.5072,2.5094,2.4987,2.4988,2.4989,0,2.3984,2.4042,2.4125,2.4168,2.4208,2.4279,2.4327,2.4367,2.4417,2.45,2.4545,2.4627,2.4694,2.4823,2.4877,2.4956,2.4963,2.501,2.4975,2.4963,2.4963,2.4958,2.4964,2.5016,2.5017,2.5018,2.5018,0,2.4085,2.4103,2.4171,2.4246,2.4302,2.4364,2.4425,2.4461,2.4512,2.4567,2.4648,2.4701,2.4805,2.4886,2.4969,2.5012,2.5024,2.5029,2.5045,2.5035,2.5015,2.5026,2.4892,2.5026,2.5025,2.5024,2.5024,2.5024,2.4151,2.4203,2.4269,2.4344,2.4394,2.4451,2.4506,2.4551,2.4619,2.4705,2.4726,2.4812,2.4881,2.4993,2.5038,2.5108,2.5099,2.5122,2.5128,2.5133,2.5134,2.5005,2.5123,2.5123,2.5123,2.5123,2.5123,0,2.4252,2.4296,2.4364,2.4448,2.4508,2.4512,2.4581,2.463,2.4705,2.4767,2.4833,2.4928,2.5006,2.5066,2.5147,2.5191,2.5199,2.5211,2.5208,2.5218,2.5137,2.5115,2.5203,2.5203,2.5203,2.5203,2.5203,2.5203,2.4312,2.4401,2.4427,2.4542,2.4585,2.4668,2.4707,2.476,2.481,2.4914,2.4979,2.5016,2.5078,2.5164,2.5237,2.5253,2.5281,2.5293,2.5309,2.5232,2.5223,2.5215,2.5195,2.5299,2.5299,2.5384,2.5385,2.5386]},{"header":{"parameterUnit":"m.s-1","parameterCategory":1,"la1":30.2991,"la2":30.254,"lo1":-89.0895,"lo2":-89.0444,"dy":0.0017,"dx":0.0017,"nx":28,"ny":28,"refTime":"2025-07-20T21:00:00:Z","depth":0,"parameterNumber":3,"parameterNumberName":"V-component_of_WINDS"},"data":[0,0,0,0,0,0,0,0,0,0,0,0,0,0,0,0,0,0,0,0,0,0,0,0,0,0,0,0,0,0,0,0,0,0,0,0,0,0,0,0,0,0,0,0,0,0,0,0,0,0,0,0,0,0,0,0,0,0,3.4379,3.438,0,3.4454,3.4455,3.4456,3.4466,3.4466,3.4465,3.4464,3.4537,3.4539,3.4542,0,0,0,0,0,0,0,0,0,0,0,0,0,3.4237,3.4239,3.4379,3.438,3.4381,3.4454,3.4455,3.4456,3.4466,3.4466,3.4465,3.4464,3.4536,3.4539,3.4542,0,0,0,0,0,0,0,0,0,0,0,0,0,3.4304,3.424,3.4379,3.4395,3.4397,3.4454,3.4455,3.4456,3.4467,3.4466,3.4465,3.4464,3.4535,3.4538,3.4542,3.4586,0,0,3.4554,3.4556,0,0,0,0,0,0,0,0,3.43,3.4309,3.4392,3.4394,3.4397,3.445,3.4431,3.45,3.4467,3.444,3.4464,3.4463,3.4508,3.4514,3.453,3.459,3.4593,3.4554,3.4557,3.4558,3.4559,0,0,0,0,0,0,0,3.4295,3.4306,3.4408,3.4393,3.4396,3.4396,3.4404,3.4444,3.4479,3.4442,3.4443,3.4452,3.4509,3.4527,3.4532,3.4594,3.4554,3.4558,3.456,3.4561,3.4688,3.4689,0,0,0,0,0,0,3.4289,3.4302,3.4406,3.4411,3.4345,3.4399,3.4409,3.4434,3.4478,3.4484,3.4453,3.4453,3.4521,3.4528,3.4535,3.4586,3.4558,3.4562,3.4564,3.4687,3.4688,3.4689,0,0,0,0,0,0,3.4286,3.4298,3.4403,3.4357,3.437,3.4403,3.4431,3.4436,3.4453,3.4487,3.4492,3.4465,3.452,3.4529,3.4573,3.4589,3.4564,3.4567,3.4686,3.4687,3.4689,3.4692,0,0,0,0,0,0,3.4281,3.4297,3.4316,3.4357,3.4372,3.4442,3.4432,3.4438,3.446,3.446,3.4499,3.4505,3.452,3.4567,3.4576,3.4594,3.457,3.4684,3.4686,3.4688,3.469,3.4693,3.4696,0,0,0,0,0,3.4276,3.4314,3.4317,3.433,3.4398,3.4443,3.4452,3.447,3.4462,3.448,3.45,3.4503,3.4586,3.4571,3.4582,3.4601,3.4683,3.4686,3.4688,3.4689,3.4693,3.4696,0,0,0,0,0,0,3.4274,3.432,3.4324,3.4376,3.4406,3.4445,3.4469,3.4474,3.4505,3.4504,3.4523,3.4532,3.4574,3.4592,3.4575,3.4643,3.4633,3.4638,3.463,3.4634,3.4637,3.4631,3.4573,0,0,0,0,0,3.4279,3.4314,3.4352,3.4394,3.4409,3.4436,3.4457,3.4468,3.4499,3.4511,3.4535,3.4563,3.4595,3.4616,3.4647,3.4693,3.4699,3.471,3.4713,3.4715,3.4719,3.474,3.4745,3.4697,3.4697,3.4697,0,0,3.4291,3.432,3.4341,3.4394,3.4419,3.4452,3.4447,3.4483,3.4507,3.4516,3.4558,3.4576,3.4608,3.4652,3.4673,3.4668,3.4733,3.4718,3.472,3.4722,3.4743,3.4748,3.4752,3.4699,3.4698,3.4698,0,0,3.4329,3.4356,3.4393,3.4416,3.4453,3.447,3.4478,3.4516,3.4529,3.4572,3.4578,3.4605,3.4661,3.4682,3.4701,3.4742,3.4745,3.4751,3.4765,3.4786,3.479,3.4793,3.4805,3.481,3.4755,3.4755,3.4755,0,3.4338,3.4391,3.441,3.4446,3.4467,3.4477,3.4511,3.4533,3.4578,3.4591,3.4586,3.4653,3.4676,3.4722,3.4732,3.4748,3.4755,3.4747,3.4788,3.4792,3.4795,3.4807,3.4811,3.4755,3.4755,3.4755,3.4755,0,3.4399,3.4435,3.4459,3.4502,3.4526,3.4561,3.4583,3.4604,3.4612,3.4628,3.4669,3.4696,3.4732,3.4744,3.4752,3.479,3.4786,3.4784,3.4775,3.48,3.4811,3.4815,3.4756,3.4756,3.4756,3.4755,0,0,3.4439,3.449,3.4498,3.4516,3.4555,3.4582,3.4615,3.465,3.4667,3.4696,3.4722,3.4767,3.4764,3.4785,3.4795,3.4814,3.484,3.4809,3.481,3.4812,3.4881,3.4881,3.4886,3.4842,3.4843,3.4844,3.4877,0,3.448,3.4542,3.4558,3.4609,3.464,3.4648,3.4676,3.4701,3.4717,3.4743,3.4759,3.479,3.4786,3.4797,3.4816,3.4833,3.4854,3.4831,3.4864,3.4865,3.4855,3.4893,3.4894,3.4924,3.4882,3.4883,3.4883,0,3.4537,3.4567,3.4621,3.4652,3.4666,3.4692,3.4723,3.4749,3.4776,3.4786,3.4807,3.4814,3.4846,3.4834,3.4876,3.486,3.4874,3.4884,3.4886,3.4889,3.4875,3.4895,3.4934,3.4938,3.4891,3.489,3.489,0,3.4557,3.4611,3.465,3.4665,3.4703,3.472,3.4737,3.4763,3.4782,3.4808,3.482,3.485,3.4865,3.4887,3.4901,3.4892,3.494,3.4931,3.4947,3.4946,3.4956,3.4955,3.4997,3.4968,3.4968,3.4967,3.4967,0,3.46,3.4633,3.4659,3.4682,3.4717,3.4734,3.4767,3.4784,3.4806,3.4831,3.4839,3.4861,3.4879,3.4903,3.4914,3.4945,3.4953,3.4959,3.4961,3.4958,3.4957,3.4967,3.4964,3.4969,3.4968,3.4968,3.4968,0,3.463,3.4649,3.4691,3.4723,3.4731,3.4755,3.4782,3.4803,3.4817,3.4848,3.4856,3.4878,3.4906,3.4923,3.4958,3.4965,3.4999,3.5001,3.499,3.4991,3.5005,3.5003,3.5054,3.5061,3.5028,3.5028,3.5028,0,3.4655,3.468,3.4714,3.4731,3.4748,3.4776,3.4795,3.4811,3.483,3.486,3.4877,3.4906,3.493,3.4974,3.4992,3.5018,3.502,3.5035,3.5024,3.5018,3.5017,3.5015,3.5016,3.5037,3.5038,3.5038,3.5038,0,3.4698,3.4705,3.4733,3.4762,3.4784,3.4808,3.4832,3.4845,3.4864,3.4884,3.4914,3.4932,3.4967,3.4995,3.5022,3.5036,3.5039,3.5042,3.5046,3.5042,3.5034,3.5037,3.4994,3.504,3.504,3.504,3.504,3.504,3.4724,3.4745,3.4772,3.4801,3.482,3.4841,3.4862,3.4878,3.4903,3.4934,3.4941,3.4971,3.4993,3.503,3.5045,3.5066,3.5063,3.5071,3.5073,3.5074,3.5073,3.5031,3.5072,3.5072,3.5072,3.5071,3.5071,0,3.4765,3.4782,3.4808,3.4841,3.4863,3.4864,3.489,3.4907,3.4934,3.4955,3.4978,3.5009,3.5035,3.5054,3.5079,3.5093,3.5095,3.5099,3.5097,3.51,3.5075,3.5068,3.5097,3.5097,3.5097,3.5097,3.5097,3.5097,3.4789,3.4823,3.4833,3.4876,3.4892,3.4922,3.4935,3.4953,3.497,3.5005,3.5027,3.5039,3.5059,3.5085,3.5107,3.5112,3.512,3.5124,3.5128,3.5105,3.5102,3.51,3.5093,3.5126,3.5126,3.5151,3.5151,3.5151]}]]